FREGAT DEB, 45889

Orbit data source: Space-Track

FREGAT DEB, 45889 is space debris in LEO originally from a launch on Mon, 18 Jul 2011 UTC launched from the Tyuratam Missile And Space Complex (TTMTR). Debris objects in space refer to the collection of defunct objects orbiting the Earth. Examples of debris include non-operational satellites, rocket bodies, and fragments generated from explosions, collisions, or faulty payload assembly.

Loading next visibility...
Identifier
45889, 2011-037DJ
Orbit
LEO
Last TLE update
5 hours ago
Origin
Manufacturer
Lavochkin
Mission
Spacecraft
Bus & Motor
Unknown
Mass
Unknown
Launch date (UTC)
2011-07-18 (14 years ago)
Launch vehicle
Unknown
Launch site
Tyuratam Missile And Space Complex (TTMTR)
Object type
Payload
Rocket body
Debris
Shape & HBR
Unknown
Radar Cross Section
Small (<0.1 m²)

Expand to show TLE details & history

TLE from 5 hours ago
0 FREGAT DEB
1 45889U 11037DJ  25189.14462483  .00046041  00000-0  58401-2 0  9998
2 45889  51.3368 230.8277 0916016  11.6341 350.4248 13.39095343215600
Epoch: 2025-07-08T03:28Z
TLE epoch observation values (Epoch: 2025-07-08T03:28:15.585Z)
Latitude
0.00002°
Longitude
-107.58105°
Altitude
438.705 km
Speed
7.986 km/s
True Right ascension
15h 23m 18s
True Declination
0° 00' 00"
Sunlit
Object was in full shadow at epoch
Visualization orbit readout
Latitude
-33.07902°
Longitude
102.95585°
Altitude
1,686.118 km
Speed
6.762 km/s
Apparent Right ascension
06h 36m 49s
Apparent Declination
-37° 51' 10"
Sunlit
Object is in daylight
Visualization observer readout
Local Sidereal Time
20:16:55
Azimuth
91.981° ESE
Elevation
-70.477°
Doppler factor
1
Orbital elements
Apogee altitude
1,799.38 km
Perigee altitude
426.949 km
Semi-major axis
7,491.301 km
Eccentricity
0.0916
Inclination
51.3368°
RAAN
230.8277°
Arg. of periapsis
11.6341°
True anomaly
Unknown
Mean anomaly
350.4248°
Eccentric anomaly
Unknown
Mean motion
3.3474 °/min
Orbital period
107.55 mins
BSTAR
0.0058401
Loading maneuver chart data...
Loading SW <> Apogee altitude chart data...
Loading historical data...
Loading historical data...
Loading historical data...
Loading historical data...
Loading historical data...
Loading historical data...
Loading historical data...

FREGAT DEB Visibility forecast

Observer location: undefined°, undefined°

Span
Click to sort rows by Start time (UTC) header in descending order
Start Az.
Max El. time (UTC)
Max El. Az.
Max El.
End time (UTC)
End Az.
10 mins2025-07-08 09:10:14.818Z311.225° NW2025-07-08 09:14:14.818Z5.582° NNE25.083°2025-07-08 09:20:14.818Z63.05° ENE
13 mins2025-07-08 11:03:14.818Z318.089° NNW2025-07-08 11:08:14.818Z33.103° NE37.245°2025-07-08 11:16:14.818Z100.207° ESE
15 mins2025-07-08 12:55:14.818Z299.003° NW2025-07-08 13:01:14.818Z215.553° SW42.355°2025-07-08 13:10:14.818Z144.101° SSE
10 mins2025-07-08 14:49:14.818Z267.473° W2025-07-08 14:53:14.818Z237.258° WSW18.585°2025-07-08 14:59:14.818Z198.533° SSW
4 mins2025-07-09 04:43:14.818Z165.007° S2025-07-09 04:44:14.818Z140.371° SSE23.278°2025-07-09 04:47:14.818Z79.772° E
7 mins2025-07-09 06:34:14.818Z274.053° WNW2025-07-09 06:36:14.818Z325.958° NNW34.546°2025-07-09 06:41:14.818Z46.637° ENE
|